| time (UTC) | temp C | wind direction | speed KPH | gust KPH | rain 1hr cm | rain 24hr cm | rain mn cm | humidity % | barometer mb |
| 20260505091851 | 17 | 49 | 0.0 | 0.0 | 0.00 | 0.00 | 0.00 | 65 | 1008.9 |
| 20260505091349 | 17 | 66 | 0.0 | 1.6 | 0.00 | 0.00 | 0.00 | 65 | 1008.6 |
| 20260505090846 | 17 | 59 | 0.0 | 0.0 | 0.00 | 0.00 | 0.00 | 64 | 1008.6 |
| 20260505090345 | 17 | 45 | 1.6 | 1.6 | 0.00 | 0.00 | 0.00 | 64 | 1008.6 |
| 20260505085841 | 17 | 176 | 1.6 | 3.2 | 0.00 | 0.00 | 0.00 | 64 | 1008.5 |
| 20260505085339 | 17 | 93 | 0.0 | 1.6 | 0.00 | 0.00 | 0.00 | 64 | 1008.6 |
| 20260505084837 | 17 | 50 | 1.6 | 1.6 | 0.00 | 0.00 | 0.00 | 63 | 1008.5 |
| 20260505084335 | 17 | 41 | 0.0 | 1.6 | 0.00 | 0.00 | 0.00 | 63 | 1008.3 |
| 20260505083832 | 17 | 43 | 1.6 | 3.2 | 0.00 | 0.00 | 0.00 | 63 | 1008.5 |
| 20260505083330 | 17 | 44 | 0.0 | 0.0 | 0.00 | 0.00 | 0.00 | 63 | 1008.2 |
| 20260505082826 | 17 | 359 | 0.0 | 1.6 | 0.00 | 0.00 | 0.00 | 63 | 1008.1 |
| 20260505082322 | 17 | 65 | 0.0 | 1.6 | 0.00 | 0.00 | 0.00 | 63 | 1008.2 |
| 20260505081819 | 17 | 54 | 1.6 | 1.6 | 0.00 | 0.00 | 0.00 | 63 | 1008.3 |
| 20260505081316 | 17 | 252 | 3.2 | 9.7 | 0.00 | 0.00 | 0.00 | 63 | 1008.0 |
| 20260505080812 | 17 | 124 | 1.6 | 1.6 | 0.00 | 0.00 | 0.00 | 64 | 1008.3 |
| 20260505080308 | 17 | 25 | 1.6 | 1.6 | 0.00 | 0.00 | 0.00 | 64 | 1008.2 |
| 20260505075804 | 17 | 47 | 0.0 | 0.0 | 0.00 | 0.00 | 0.00 | 64 | 1008.5 |
| 20260505075304 | 17 | 45 | 0.0 | 1.6 | 0.00 | 0.00 | 0.00 | 63 | 1008.4 |
| 20260505074758 | 18 | 27 | 1.6 | 1.6 | 0.00 | 0.00 | 0.00 | 62 | 1008.5 |
| 20260505074256 | 18 | 90 | 0.0 | 0.0 | 0.00 | 0.00 | 0.00 | 62 | 1008.5 |
| 20260505073753 | 18 | 73 | 1.6 | 1.6 | 0.00 | 0.00 | 0.00 | 61 | 1008.4 |
| 20260505073251 | 18 | 32 | 1.6 | 3.2 | 0.00 | 0.00 | 0.00 | 61 | 1008.4 |
| 20260505072747 | 18 | 357 | 1.6 | 3.2 | 0.00 | 0.00 | 0.00 | 61 | 1008.3 |
| 20260505072243 | 18 | 358 | 3.2 | 4.8 | 0.00 | 0.00 | 0.00 | 61 | 1008.2 |
| 20260505071739 | 18 | 197 | 4.8 | 4.8 | 0.00 | 0.00 | 0.00 | 61 | 1008.1 |
| 20260505071236 | 18 | 50 | 1.6 | 1.6 | 0.00 | 0.00 | 0.00 | 61 | 1008.2 |
| 20260505070734 | 18 | 300 | 3.2 | 3.2 | 0.00 | 0.00 | 0.00 | 61 | 1008.3 |
| 20260505070230 | 18 | 0 | 3.2 | 4.8 | 0.00 | 0.00 | 0.00 | 61 | 1008.3 |
| 20260505065726 | 18 | 50 | 0.0 | 1.6 | 0.00 | 0.00 | 0.00 | 61 | 1008.3 |
| 20260505065223 | 18 | 16 | 3.2 | 3.2 | 0.00 | 0.00 | 0.00 | 61 | 1008.4 |
| 20260505064720 | 18 | 36 | 1.6 | 1.6 | 0.00 | 0.00 | 0.00 | 61 | 1008.5 |
| 20260505064218 | 18 | 69 | 1.6 | 1.6 | 0.00 | 0.00 | 0.00 | 62 | 1009.0 |
| 20260505063715 | 18 | 51 | 0.0 | 0.0 | 0.00 | 0.00 | 0.00 | 61 | 1008.9 |
| 20260505063211 | 18 | 255 | 4.8 | 4.8 | 0.00 | 0.00 | 0.00 | 61 | 1009.1 |
| 20260505062707 | 18 | 50 | 0.0 | 0.0 | 0.00 | 0.00 | 0.00 | 61 | 1009.3 |
| 20260505062205 | 18 | 16 | 1.6 | 3.2 | 0.00 | 0.00 | 0.00 | 61 | 1009.4 |
| 20260505061702 | 18 | 131 | 4.8 | 6.4 | 0.00 | 0.00 | 0.00 | 61 | 1009.3 |
| 20260505061200 | 18 | 189 | 3.2 | 3.2 | 0.00 | 0.00 | 0.00 | 60 | 1009.2 |
| 20260505060657 | 18 | 44 | 0.0 | 1.6 | 0.00 | 0.00 | 0.00 | 60 | 1009.4 |
| 20260505060154 | 18 | 32 | 0.0 | 1.6 | 0.00 | 0.00 | 0.00 | 60 | 1009.5 |
| 20260505055649 | 18 | 46 | 1.6 | 1.6 | 0.00 | 0.00 | 0.00 | 60 | 1009.3 |
| 20260505055146 | 18 | 73 | 0.0 | 1.6 | 0.00 | 0.00 | 0.00 | 60 | 1009.4 |
| 20260505054643 | 18 | 61 | 1.6 | 1.6 | 0.00 | 0.00 | 0.00 | 60 | 1009.6 |
| 20260505054141 | 18 | 66 | 0.0 | 0.0 | 0.00 | 0.00 | 0.00 | 60 | 1009.5 |
| 20260505053639 | 18 | 71 | 1.6 | 1.6 | 0.00 | 0.00 | 0.00 | 60 | 1009.8 |
| 20260505053135 | 18 | 46 | 0.0 | 1.6 | 0.00 | 0.00 | 0.00 | 60 | 1009.6 |
| 20260505052632 | 18 | 56 | 1.6 | 1.6 | 0.00 | 0.00 | 0.00 | 60 | 1009.5 |
| 20260505052129 | 18 | 34 | 0.0 | 1.6 | 0.00 | 0.00 | 0.00 | 60 | 1009.6 |
| 20260505051626 | 18 | 47 | 1.6 | 1.6 | 0.00 | 0.00 | 0.00 | 60 | 1009.6 |
| 20260505051124 | 18 | 59 | 0.0 | 1.6 | 0.00 | 0.00 | 0.00 | 61 | 1009.8 |
| 20260505050621 | 18 | 44 | 0.0 | 1.6 | 0.00 | 0.00 | 0.00 | 60 | 1009.5 |
| 20260505050120 | 18 | 51 | 1.6 | 1.6 | 0.00 | 0.00 | 0.00 | 60 | 1009.8 |
| 20260505041549 | 18 | 351 | 1.6 | 3.2 | 0.00 | 0.00 | 0.00 | 58 | 1009.8 |
| 20260505041047 | 18 | 80 | 0.0 | 1.6 | 0.00 | 0.00 | 0.00 | 58 | 1009.8 |
| 20260505040544 | 18 | 356 | 3.2 | 3.2 | 0.00 | 0.00 | 0.00 | 58 | 1009.8 |
| 20260505040041 | 18 | 333 | 3.2 | 3.2 | 0.00 | 0.00 | 0.00 | 59 | 1009.8 |
| 20260505035537 | 18 | 49 | 1.6 | 3.2 | 0.00 | 0.00 | 0.00 | 59 | 1009.8 |
| 20260505035034 | 18 | 51 | 0.0 | 0.0 | 0.00 | 0.00 | 0.00 | 59 | 1009.5 |
| 20260505034530 | 18 | 71 | 0.0 | 1.6 | 0.00 | 0.00 | 0.00 | 58 | 1009.8 |
| 20260505034027 | 19 | 13 | 1.6 | 1.6 | 0.00 | 0.00 | 0.00 | 58 | 1009.9 |
| 20260505033524 | 18 | 191 | 1.6 | 1.6 | 0.00 | 0.00 | 0.00 | 58 | 1009.8 |
| 20260505033023 | 18 | 75 | 1.6 | 1.6 | 0.00 | 0.00 | 0.00 | 58 | 1009.8 |
| 20260505032520 | 19 | 57 | 0.0 | 0.0 | 0.00 | 0.00 | 0.00 | 58 | 1009.8 |
| 20260505032016 | 19 | 50 | 0.0 | 0.0 | 0.00 | 0.00 | 0.00 | 57 | 1009.7 |
| 20260505031514 | 20 | 54 | 0.0 | 0.0 | 0.00 | 0.00 | 0.00 | 56 | 1009.7 |
| 20260505031010 | 20 | 117 | 1.6 | 1.6 | 0.00 | 0.00 | 0.00 | 56 | 1009.4 |
| 20260505030507 | 20 | 64 | 0.0 | 1.6 | 0.00 | 0.00 | 0.00 | 55 | 1009.4 |
| 20260505030002 | 20 | 45 | 1.6 | 3.2 | 0.00 | 0.00 | 0.00 | 56 | 1009.4 |
| 20260505025459 | 19 | 50 | 0.0 | 0.0 | 0.00 | 0.00 | 0.00 | 56 | 1009.2 |
| 20260505024958 | 19 | 35 | 0.0 | 0.0 | 0.00 | 0.00 | 0.00 | 57 | 1009.3 |
| 20260505024454 | 19 | 9 | 1.6 | 3.2 | 0.00 | 0.00 | 0.00 | 56 | 1009.0 |
| 20260505023951 | 19 | 58 | 0.0 | 0.0 | 0.00 | 0.00 | 0.00 | 56 | 1008.8 |
| 20260505023448 | 19 | 48 | 0.0 | 0.0 | 0.00 | 0.00 | 0.00 | 56 | 1009.0 |
| 20260505022946 | 19 | 55 | 0.0 | 0.0 | 0.00 | 0.00 | 0.00 | 57 | 1009.0 |
| 20260505022443 | 18 | 64 | 0.0 | 1.6 | 0.00 | 0.00 | 0.00 | 57 | 1009.0 |
| 20260505021940 | 18 | 65 | 0.0 | 1.6 | 0.00 | 0.00 | 0.00 | 57 | 1008.9 |
| 20260505021437 | 18 | 57 | 0.0 | 0.0 | 0.00 | 0.00 | 0.00 | 56 | 1008.9 |
| 20260505020932 | 19 | 57 | 0.0 | 0.0 | 0.00 | 0.00 | 0.00 | 55 | 1009.0 |
| 20260505020428 | 20 | 55 | 0.0 | 0.0 | 0.00 | 0.00 | 0.00 | 54 | 1008.8 |
| 20260505015925 | 20 | 54 | 0.0 | 0.0 | 0.00 | 0.00 | 0.00 | 53 | 1008.8 |
| 20260505015422 | 20 | 57 | 0.0 | 0.0 | 0.00 | 0.00 | 0.00 | 52 | 1008.6 |
| 20260505014920 | 20 | 50 | 0.0 | 0.0 | 0.00 | 0.00 | 0.00 | 51 | 1008.6 |
| 20260505014416 | 20 | 50 | 0.0 | 0.0 | 0.00 | 0.00 | 0.00 | 50 | 1008.6 |
| 20260505013913 | 20 | 70 | 0.0 | 0.0 | 0.00 | 0.00 | 0.00 | 49 | 1008.5 |
| 20260505013410 | 20 | 54 | 0.0 | 0.0 | 0.00 | 0.00 | 0.00 | 49 | 1008.4 |
| 20260505012908 | 20 | 49 | 0.0 | 0.0 | 0.00 | 0.00 | 0.00 | 50 | 1008.5 |
| 20260505012406 | 20 | 86 | 0.0 | 1.6 | 0.00 | 0.00 | 0.00 | 49 | 1008.5 |
| 20260505011902 | 20 | 41 | 0.0 | 0.0 | 0.00 | 0.00 | 0.00 | 49 | 1008.4 |
| 20260505011359 | 21 | 173 | 0.0 | 3.2 | 0.00 | 0.00 | 0.00 | 48 | 1008.3 |
| 20260505010855 | 21 | 53 | 0.0 | 0.0 | 0.00 | 0.00 | 0.00 | 47 | 1008.5 |
| 20260505010351 | 21 | 60 | 0.0 | 0.0 | 0.00 | 0.00 | 0.00 | 46 | 1008.4 |
| 20260505005847 | 22 | 46 | 0.0 | 0.0 | 0.00 | 0.00 | 0.00 | 45 | 1008.2 |
| 20260505005344 | 22 | 40 | 0.0 | 0.0 | 0.00 | 0.00 | 0.00 | 43 | 1008.3 |
| 20260505004842 | 22 | 67 | 0.0 | 0.0 | 0.00 | 0.00 | 0.00 | 42 | 1008.3 |
| 20260505004338 | 23 | 322 | 3.2 | 3.2 | 0.00 | 0.00 | 0.00 | 41 | 1008.5 |
| 20260505003835 | 23 | 4 | 0.0 | 1.6 | 0.00 | 0.00 | 0.00 | 40 | 1008.4 |
| 20260505003332 | 23 | 352 | 4.8 | 4.8 | 0.00 | 0.00 | 0.00 | 39 | 1008.4 |
| 20260505002828 | 23 | 142 | 1.6 | 3.2 | 0.00 | 0.00 | 0.00 | 39 | 1008.4 |
| 20260505002325 | 24 | 279 | 6.4 | 9.7 | 0.00 | 0.00 | 0.00 | 38 | 1008.5 |
| 20260505001824 | 24 | 334 | 4.8 | 6.4 | 0.00 | 0.00 | 0.00 | 37 | 1008.3 |
| 20260505001320 | 24 | 298 | 4.8 | 4.8 | 0.00 | 0.00 | 0.00 | 37 | 1008.4 |
| 20260505000818 | 24 | 317 | 6.4 | 9.7 | 0.00 | 0.00 | 0.00 | 36 | 1008.3 |
| 20260505000315 | 25 | 206 | 4.8 | 12.9 | 0.00 | 0.00 | 0.00 | 36 | 1008.5 |
| 20260504235812 | 25 | 337 | 6.4 | 6.4 | 0.00 | 0.00 | 0.00 | 36 | 1008.3 |
| 20260504235309 | 25 | 329 | 4.8 | 4.8 | 0.00 | 0.00 | 0.00 | 36 | 1008.3 |
| 20260504234805 | 25 | 311 | 3.2 | 4.8 | 0.00 | 0.00 | 0.00 | 36 | 1008.6 |
| 20260504234303 | 25 | 280 | 9.7 | 11.3 | 0.00 | 0.00 | 0.00 | 35 | 1008.5 |
| 20260504233759 | 25 | 314 | 8.0 | 12.9 | 0.00 | 0.00 | 0.00 | 35 | 1008.4 |
| 20260504233255 | 25 | 246 | 12.9 | 16.1 | 0.00 | 0.00 | 0.00 | 35 | 1008.7 |
| 20260504232752 | 25 | 284 | 19.3 | 24.1 | 0.00 | 0.00 | 0.00 | 33 | 1008.6 |
| 20260504232249 | 25 | 250 | 9.7 | 11.3 | 0.00 | 0.00 | 0.00 | 34 | 1008.7 |
| 20260504231746 | 25 | 305 | 4.8 | 4.8 | 0.00 | 0.00 | 0.00 | 35 | 1008.7 |
| 20260504231242 | 25 | 228 | 8.0 | 12.9 | 0.00 | 0.00 | 0.00 | 35 | 1008.7 |
| 20260504230738 | 26 | 308 | 14.5 | 24.1 | 0.00 | 0.00 | 0.00 | 34 | 1008.9 |
| 20260504230237 | 26 | 39 | 6.4 | 6.4 | 0.00 | 0.00 | 0.00 | 36 | 1008.9 |
| 20260504225735 | 26 | 208 | 4.8 | 6.4 | 0.00 | 0.00 | 0.00 | 35 | 1009.0 |
| 20260504225231 | 26 | 118 | 3.2 | 3.2 | 0.00 | 0.00 | 0.00 | 36 | 1008.8 |
| 20260504224729 | 26 | 143 | 8.0 | 11.3 | 0.00 | 0.00 | 0.00 | 34 | 1009.0 |
| 20260504224226 | 26 | 189 | 4.8 | 6.4 | 0.00 | 0.00 | 0.00 | 35 | 1009.0 |
| 20260504223722 | 26 | 124 | 3.2 | 3.2 | 0.00 | 0.00 | 0.00 | 35 | 1009.0 |
| 20260504223217 | 26 | 311 | 4.8 | 6.4 | 0.00 | 0.00 | 0.00 | 35 | 1009.0 |
| 20260504222715 | 26 | 93 | 8.0 | 12.9 | 0.00 | 0.00 | 0.00 | 34 | 1009.0 |
| 20260504222212 | 27 | 282 | 9.7 | 14.5 | 0.00 | 0.00 | 0.00 | 34 | 1008.9 |
| 20260504221709 | 27 | 339 | 6.4 | 6.4 | 0.00 | 0.00 | 0.00 | 35 | 1008.8 |
| 20260504221206 | 27 | 101 | 9.7 | 16.1 | 0.00 | 0.00 | 0.00 | 35 | 1008.8 |
| 20260504220702 | 27 | 241 | 6.4 | 6.4 | 0.00 | 0.00 | 0.00 | 35 | 1008.7 |
| 20260504220200 | 27 | 61 | 3.2 | 6.4 | 0.00 | 0.00 | 0.00 | 36 | 1008.9 |
| 20260504215656 | 27 | 30 | 1.6 | 3.2 | 0.00 | 0.00 | 0.00 | 35 | 1008.9 |
| 20260504215154 | 27 | 308 | 4.8 | 4.8 | 0.00 | 0.00 | 0.00 | 34 | 1008.7 |
| 20260504214649 | 27 | 184 | 6.4 | 9.7 | 0.00 | 0.00 | 0.00 | 34 | 1008.7 |
| 20260504214146 | 27 | 42 | 4.8 | 4.8 | 0.00 | 0.00 | 0.00 | 34 | 1008.9 |
| 20260504213643 | 27 | 199 | 4.8 | 4.8 | 0.00 | 0.00 | 0.00 | 34 | 1008.7 |
| 20260504213139 | 27 | 358 | 9.7 | 11.3 | 0.00 | 0.00 | 0.00 | 33 | 1009.0 |
| 20260504212635 | 27 | 334 | 14.5 | 20.9 | 0.00 | 0.00 | 0.00 | 32 | 1009.0 |
| 20260504212132 | 27 | 267 | 4.8 | 6.4 | 0.00 | 0.00 | 0.00 | 35 | 1008.7 |
| 20260504211630 | 27 | 202 | 1.6 | 4.8 | 0.00 | 0.00 | 0.00 | 36 | 1008.7 |
| 20260504211126 | 27 | 321 | 3.2 | 6.4 | 0.00 | 0.00 | 0.00 | 35 | 1008.6 |
| 20260504210624 | 27 | 352 | 11.3 | 16.1 | 0.00 | 0.00 | 0.00 | 33 | 1008.7 |
| 20260504210120 | 27 | 294 | 4.8 | 6.4 | 0.00 | 0.00 | 0.00 | 36 | 1008.8 |
| 20260504205618 | 27 | 306 | 11.3 | 16.1 | 0.00 | 0.00 | 0.00 | 34 | 1008.9 |
| 20260504205115 | 27 | 268 | 12.9 | 16.1 | 0.00 | 0.00 | 0.00 | 35 | 1009.0 |
| 20260504204614 | 27 | 310 | 6.4 | 11.3 | 0.00 | 0.00 | 0.00 | 35 | 1008.9 |
| 20260504204112 | 27 | 334 | 9.7 | 11.3 | 0.00 | 0.00 | 0.00 | 35 | 1009.0 |
| 20260504203610 | 27 | 235 | 9.7 | 12.9 | 0.00 | 0.00 | 0.00 | 34 | 1009.1 |
| 20260504203108 | 27 | 116 | 3.2 | 3.2 | 0.00 | 0.00 | 0.00 | 34 | 1009.3 |
| 20260504202602 | 27 | 38 | 3.2 | 6.4 | 0.00 | 0.00 | 0.00 | 37 | 1009.1 |
| 20260504201516 | 27 | 309 | 9.7 | 12.9 | 0.00 | 0.00 | 0.00 | 35 | 1009.5 |
| 20260504201014 | 27 | 309 | 9.7 | 12.9 | 0.00 | 0.00 | 0.00 | 35 | 1009.5 |
| 20260504200510 | 27 | 59 | 4.8 | 6.4 | 0.00 | 0.00 | 0.00 | 38 | 1009.4 |
| 20260504200007 | 27 | 53 | 3.2 | 6.4 | 0.00 | 0.00 | 0.00 | 36 | 1009.6 |
| 20260504195503 | 27 | 104 | 4.8 | 9.7 | 0.00 | 0.00 | 0.00 | 36 | 1009.5 |
| 20260504194959 | 27 | 290 | 6.4 | 6.4 | 0.00 | 0.00 | 0.00 | 36 | 1009.6 |
| 20260504194455 | 27 | 358 | 3.2 | 4.8 | 0.00 | 0.00 | 0.00 | 38 | 1009.7 |
| 20260504193951 | 27 | 251 | 8.0 | 11.3 | 0.00 | 0.00 | 0.00 | 36 | 1009.9 |
| 20260504193449 | 27 | 303 | 12.9 | 16.1 | 0.00 | 0.00 | 0.00 | 35 | 1009.9 |
| 20260504192947 | 27 | 316 | 6.4 | 6.4 | 0.00 | 0.00 | 0.00 | 36 | 1009.8 |
| 20260504192444 | 27 | 156 | 9.7 | 14.5 | 0.00 | 0.00 | 0.00 | 35 | 1009.9 |
| 20260504191943 | 27 | 259 | 4.8 | 11.3 | 0.00 | 0.00 | 0.00 | 38 | 1010.0 |
| 20260504191441 | 27 | 237 | 11.3 | 14.5 | 0.00 | 0.00 | 0.00 | 35 | 1010.1 |
| 20260504190935 | 27 | 333 | 3.2 | 3.2 | 0.00 | 0.00 | 0.00 | 38 | 1010.1 |
| 20260504190431 | 27 | 260 | 9.7 | 12.9 | 0.00 | 0.00 | 0.00 | 36 | 1010.0 |
| 20260504185928 | 27 | 302 | 9.7 | 12.9 | 0.00 | 0.00 | 0.00 | 35 | 1010.4 |
| 20260504185426 | 27 | 40 | 4.8 | 6.4 | 0.00 | 0.00 | 0.00 | 36 | 1010.3 |
| 20260504184921 | 27 | 284 | 6.4 | 6.4 | 0.00 | 0.00 | 0.00 | 37 | 1010.3 |
| 20260504184417 | 26 | 296 | 9.7 | 12.9 | 0.00 | 0.00 | 0.00 | 37 | 1010.4 |
| 20260504183913 | 26 | 153 | 4.8 | 6.4 | 0.00 | 0.00 | 0.00 | 38 | 1010.4 |
| 20260504183411 | 26 | 232 | 8.0 | 14.5 | 0.00 | 0.00 | 0.00 | 37 | 1010.6 |
| 20260504182909 | 26 | 349 | 3.2 | 4.8 | 0.00 | 0.00 | 0.00 | 36 | 1010.6 |
| 20260504182405 | 26 | 184 | 4.8 | 4.8 | 0.00 | 0.00 | 0.00 | 37 | 1010.4 |
| 20260504181902 | 26 | 297 | 11.3 | 14.5 | 0.00 | 0.00 | 0.00 | 37 | 1010.9 |
| 20260504181359 | 26 | 305 | 6.4 | 12.9 | 0.00 | 0.00 | 0.00 | 39 | 1010.5 |
| 20260504180858 | 27 | 24 | 6.4 | 9.7 | 0.00 | 0.00 | 0.00 | 38 | 1010.8 |
| 20260504180356 | 26 | 43 | 3.2 | 4.8 | 0.00 | 0.00 | 0.00 | 38 | 1010.8 |
| 20260504175854 | 26 | 323 | 11.3 | 16.1 | 0.00 | 0.00 | 0.00 | 37 | 1010.9 |
| 20260504175351 | 26 | 82 | 4.8 | 9.7 | 0.00 | 0.00 | 0.00 | 39 | 1010.8 |
| 20260504174849 | 26 | 329 | 9.7 | 14.5 | 0.00 | 0.00 | 0.00 | 39 | 1011.1 |
| 20260504174346 | 26 | 293 | 9.7 | 12.9 | 0.00 | 0.00 | 0.00 | 37 | 1011.0 |
| 20260504173843 | 26 | 20 | 6.4 | 11.3 | 0.00 | 0.00 | 0.00 | 39 | 1011.0 |
| 20260504173340 | 26 | 311 | 11.3 | 16.1 | 0.00 | 0.00 | 0.00 | 38 | 1011.1 |
| 20260504172837 | 26 | 37 | 6.4 | 11.3 | 0.00 | 0.00 | 0.00 | 39 | 1011.2 |
| 20260504172333 | 26 | 234 | 14.5 | 16.1 | 0.00 | 0.00 | 0.00 | 37 | 1011.3 |
| 20260504171829 | 26 | 339 | 9.7 | 17.7 | 0.00 | 0.00 | 0.00 | 38 | 1011.1 |
| 20260504171327 | 26 | 185 | 6.4 | 11.3 | 0.00 | 0.00 | 0.00 | 38 | 1011.1 |
| 20260504170824 | 26 | 223 | 12.9 | 17.7 | 0.00 | 0.00 | 0.00 | 38 | 1011.5 |
| 20260504170321 | 26 | 260 | 9.7 | 12.9 | 0.00 | 0.00 | 0.00 | 38 | 1011.6 |
| 20260504160239 | 25 | 265 | 8.0 | 11.3 | 0.00 | 0.00 | 0.00 | 43 | 1012.0 |
| 20260504150704 | 22 | 167 | 6.4 | 6.4 | 0.00 | 0.00 | 0.00 | 52 | 1012.7 |
| 20260504150201 | 22 | 200 | 6.4 | 9.7 | 0.00 | 0.00 | 0.00 | 51 | 1012.8 |
| 20260504141130 | 20 | 20 | 1.6 | 1.6 | 0.00 | 0.00 | 0.00 | 60 | 1012.5 |
| 20260504140627 | 20 | 282 | 6.4 | 6.4 | 0.00 | 0.00 | 0.00 | 59 | 1012.7 |
| 20260504140122 | 20 | 44 | 1.6 | 3.2 | 0.00 | 0.00 | 0.00 | 61 | 1012.7 |
| 20260504130551 | 17 | 55 | 0.0 | 0.0 | 0.00 | 0.00 | 0.00 | 65 | 1012.7 |
| 20260504110438 | 15 | 40 | 3.2 | 3.2 | 0.00 | 0.00 | 0.00 | 69 | 1012.0 |
| 20260504100401 | 15 | 57 | 1.6 | 1.6 | 0.00 | 0.00 | 0.00 | 67 | 1011.9 |